Regional Weather Roundup
Issued by NWS Sioux Falls, SD

Home | Current Version | Previous Version | Text Only | Print | Product List | Glossary Off
Versions: 1 2 3 4 5 6 7 8 9 10 11 12 13 14 15 16 17 18 19 20 21 22 23 24 25 26 27 28 29 30 31 32 33 34 35 36 37 38 39 40 41 42 43 44 45 46 47 48 49 50

000
ASUS43 KFSD 252010
RWRFSD

WEATHER ROUNDUP FOR SE SOUTH DAKOTA/SW MINNESOTA/NW IOWA
NATIONAL WEATHER SERVICE SIOUX FALLS SD
300 PM CDT FRI MAY 25 2018

NOTE: "FAIR" INDICATES FEW OR NO CLOUDS BELOW 12,000 FEET WITH NO
SIGNIFICANT WEATHER AND OR OBSTRUCTIONS TO VISIBILITY.


SDZ038>040-050-052>070-252100-
SOUTHEAST SOUTH DAKOTA

CITY           SKY/WX    TMP DP  RH WIND       PRES   REMARKS
CHAMBERLAIN    SUNNY     90  60  36 W5        29.80F
HURON          MOSUNNY   92  54  27 W16G25    29.74F
MADISON        FAIR      86  59  39 W13       29.78F
MITCHELL       MOSUNNY   91  57  31 W9        29.76F
SIOUX FALLS    PTSUNNY   87  60  40 VRB3      29.77F
WINNER         FAIR      89  54  30 S3        29.83F
YANKTON        SUNNY     90  55  30 CALM      29.78F
$$

MNZ071-072-080-081-089-090-097-098-252100-
SOUTHWEST MINNESOTA

CITY           SKY/WX    TMP DP  RH WIND       PRES   REMARKS
FAIRMONT       SUNNY     89  58  34 W10       29.75F
JACKSON        SUNNY     88  54  31 VRB3      29.78F THUNDER
LUVERNE        MOSUNNY   88  48  25 W9G16     29.78F
MARSHALL       MOSUNNY   86  58  38 NW15      29.73F
MONTEVIDEO     MOSUNNY   95  48  20 NW14G21   29.71F
PIPESTONE      MOSUNNY   88  54  31 NW5       29.78F
REDWOOD FALLS  MOSUNNY   89  59  36 VRB6      29.72F
TRACY          MOSUNNY   91  53  27 W9        29.74F
WINDOM         MOSUNNY   91  55  29 SW5       29.76F
WORTHINGTON    MOSUNNY   89  53  29 SW8       29.79F
$$

IAZ001>003-012>014-020>022-031-032-NEZ013-014-SDZ071-252100-
NORTHWEST IOWA

CITY           SKY/WX    TMP DP  RH WIND       PRES   REMARKS
CHEROKEE       MOSUNNY   88  58  35 CALM      29.77F
DENISON        SUNNY     90  64  43 W7        29.79F
ESTHERVILLE    SUNNY     87  62  43 VRB3      29.76F
ORANGE CITY    SUNNY     91  55  29 W13       29.78F
SHELDON        SUNNY     91  50  24 VRB5G14   29.77F
SIOUX CITY     SUNNY     91  61  36 E7        29.77F
SPENCER        SUNNY     92  53  26 W8        29.77F
STORM LAKE     SUNNY     90  57  33 VRB6      29.79F
$$

ABBREVIATIONS USED IN REMARKS
   TC - TEMPERATURE IN CELSIUS
  WCI - WIND CHILL INDEX
   HX - HEAT INDEX
  VSB - VISIBILITY





USA.gov is the U.S. government's official web portal to all federal, state and local government web resources and services.